CW4066 Weather Reports


Display with metric or nautical units.
time (UTC)temp
F
wind
direction
speed
MPH
gust
MPH
rain 1hr
in
rain 24hr
in
rain mn
in
humidity
%
barometer
mb
20260504060120 50 0 0.0 2.0 0.00 0.01 0.00 79 1005.9
20260504050556 51 0 0.0 2.0 0.00 0.01 0.00 74 1006.2
20260504050117 52 0 0.0 2.0 0.00 0.01 0.00 74 1006.2
20260504045556 52 0 0.0 3.0 0.00 0.01 0.01 74 1006.2
20260504045058 52 0 0.0 3.0 0.00 0.01 0.01 74 1006.2
20260504044600 52 0 0.0 2.0 0.00 0.01 0.01 73 1006.2
20260504044059 52 0 0.0 2.0 0.00 0.01 0.01 72 1006.2
20260504043559 52 0 0.0 1.0 0.00 0.01 0.01 72 1006.2
20260504043111 52 0 0.0 0.0 0.00 0.01 0.01 72 1006.2
20260504042558 52 0 0.0 0.0 0.00 0.01 0.01 72 1006.2
20260504042057 53 0 0.0 1.0 0.00 0.01 0.01 72 1006.2
20260504041601 53 0 0.0 1.0 0.00 0.01 0.01 73 1006.2
20260504041057 53 0 0.0 0.0 0.00 0.01 0.01 73 1006.1
20260504040558 53 0 0.0 0.0 0.00 0.01 0.01 73 1006.1
20260504040109 53 0 0.0 0.0 0.00 0.01 0.01 73 1006.1
20260504035558 53 0 0.0 0.0 0.00 0.01 0.01 72 1006.1
20260504035059 53 0 0.0 3.0 0.00 0.01 0.01 72 1006.0
20260504034601 53 0 0.0 3.0 0.00 0.01 0.01 72 1006.1
20260504034058 53 214 0.0 1.0 0.00 0.01 0.01 72 1006.1
20260504033558 53 0 0.0 1.0 0.00 0.01 0.01 72 1006.1
20260504033105 54 0 0.0 1.0 0.00 0.01 0.01 72 1006.2
20260504032558 54 0 0.0 1.0 0.00 0.01 0.01 72 1006.4
20260504032059 54 0 0.0 1.0 0.00 0.01 0.01 72 1006.4
20260504031604 54 0 0.0 1.0 0.00 0.01 0.01 72 1006.3
20260504031054 54 0 0.0 2.0 0.00 0.01 0.01 72 1006.5
20260504030557 54 0 0.0 3.0 0.00 0.01 0.01 71 1006.5
20260504030056 54 0 0.0 4.0 0.00 0.01 0.01 71 1006.4
20260504025555 54 0 0.0 4.0 0.00 0.01 0.01 70 1006.5
20260504025055 54 188 0.0 4.0 0.00 0.01 0.01 70 1006.5
20260504024557 55 193 0.0 5.0 0.00 0.01 0.01 70 1006.5
20260504024056 55 0 0.0 5.0 0.00 0.01 0.01 70 1006.5
20260504023557 55 0 0.0 5.0 0.00 0.01 0.01 70 1006.5
20260504023058 55 0 0.0 5.0 0.00 0.01 0.01 69 1006.4
20260504022555 55 0 0.0 3.0 0.00 0.01 0.01 69 1006.5
20260504022054 56 0 0.0 3.0 0.00 0.01 0.01 68 1006.5
20260504021558 56 0 0.0 3.0 0.00 0.01 0.01 67 1006.5
20260504021057 56 0 0.0 3.0 0.00 0.01 0.01 67 1006.5
20260504020557 56 0 0.0 3.0 0.00 0.01 0.01 66 1006.5
20260504020057 56 0 0.0 3.0 0.00 0.01 0.01 66 1006.3
20260504015559 57 0 0.0 3.0 0.00 0.01 0.01 65 1006.2
20260504015058 57 0 0.0 3.0 0.00 0.01 0.01 64 1006.1
20260504014603 57 0 0.0 3.0 0.00 0.01 0.01 64 1006.1
20260504014055 58 207 0.0 4.0 0.00 0.01 0.01 63 1006.1
20260504013557 58 0 0.0 4.0 0.00 0.01 0.01 63 1005.9
20260504013107 58 0 0.0 6.0 0.00 0.01 0.01 62 1005.9
20260504012555 58 0 0.0 6.0 0.00 0.01 0.01 61 1005.9
20260504012055 59 0 1.0 6.0 0.00 0.01 0.01 60 1005.9
20260504011559 59 0 1.0 5.0 0.00 0.01 0.01 60 1005.8
20260504011058 60 151 0.0 2.0 0.00 0.01 0.01 60 1005.8
20260504010554 60 0 0.0 2.0 0.00 0.01 0.01 59 1005.8
20260504010115 60 0 0.0 2.0 0.00 0.01 0.01 59 1005.7
20260504005557 61 0 0.0 4.0 0.00 0.01 0.01 58 1005.7
20260504005058 61 0 0.0 4.0 0.00 0.01 0.01 57 1005.7
20260504004558 61 0 0.0 2.0 0.00 0.01 0.01 57 1005.8
20260504004100 62 0 0.0 3.0 0.00 0.01 0.01 56 1005.7
20260504003557 62 0 0.0 3.0 0.00 0.01 0.01 55 1005.7
20260504003056 62 0 0.0 5.0 0.00 0.01 0.01 55 1005.8
20260504002557 63 0 0.0 8.0 0.00 0.01 0.01 55 1005.8
20260504002057 63 0 1.0 9.0 0.00 0.01 0.01 54 1005.8
20260504001602 63 207 1.0 10.0 0.00 0.01 0.01 54 1005.9
20260504001054 64 0 2.0 10.0 0.00 0.01 0.01 53 1005.8
20260504000555 64 59 3.0 10.0 0.00 0.01 0.01 52 1005.8
20260504000059 64 0 3.0 10.0 0.00 0.01 0.01 50 1005.9
20260503235558 65 200 1.0 10.0 0.00 0.01 0.01 52 1005.8
20260503235057 65 243 1.0 12.0 0.00 0.01 0.01 50 1005.7
20260503234558 65 188 3.0 12.0 0.00 0.01 0.01 50 1005.8
20260503234058 65 246 1.0 8.0 0.00 0.01 0.01 50 1005.8
20260503233558 66 202 1.0 10.0 0.00 0.01 0.01 51 1005.9
20260503233103 66 0 1.0 11.0 0.00 0.01 0.01 50 1005.9
20260503232557 66 178 4.0 13.0 0.00 0.01 0.01 49 1005.9
20260503232057 66 186 3.0 14.0 0.00 0.01 0.01 48 1005.8
20260503231555 66 210 3.0 14.0 0.00 0.01 0.01 49 1005.8
20260503231058 66 223 3.0 12.0 0.00 0.01 0.01 46 1005.8
20260503230557 66 246 5.0 15.0 0.00 0.01 0.01 45 1005.9
20260503230058 66 0 2.0 15.0 0.00 0.01 0.01 48 1005.9
20260503225601 66 260 4.0 19.0 0.00 0.01 0.01 48 1006.0
20260503225055 66 165 3.0 19.0 0.00 0.01 0.01 46 1006.0
20260503224601 66 232 5.0 13.0 0.00 0.01 0.01 42 1006.0
20260503224100 67 195 5.0 12.0 0.00 0.01 0.01 44 1006.1
20260503223558 67 238 2.0 13.0 0.00 0.01 0.01 45 1006.1
20260503223059 67 157 4.0 14.0 0.00 0.01 0.01 42 1006.2
20260503222557 67 231 5.0 14.0 0.00 0.01 0.01 41 1006.2
20260503222059 67 217 5.0 15.0 0.00 0.01 0.01 42 1006.2
20260503221601 67 205 2.0 15.0 0.00 0.01 0.01 41 1006.3
20260503221055 67 159 3.0 13.0 0.00 0.01 0.01 42 1006.4
20260503220555 67 202 3.0 11.0 0.00 0.01 0.01 42 1006.4
20260503220104 67 162 5.0 11.0 0.00 0.01 0.01 43 1006.4
20260503215554 67 248 3.0 11.0 0.00 0.01 0.01 41 1006.4
20260503215057 67 0 3.0 10.0 0.00 0.01 0.01 40 1006.5
20260503214558 67 167 3.0 11.0 0.00 0.01 0.01 40 1006.6
20260503214057 67 232 2.0 11.0 0.00 0.01 0.01 41 1006.6
20260503213558 67 146 4.0 14.0 0.00 0.01 0.01 42 1006.6
20260503213055 66 229 5.0 14.0 0.00 0.01 0.01 39 1006.7
20260503212558 67 179 4.0 14.0 0.00 0.01 0.01 39 1006.8
20260503212057 67 134 3.0 14.0 0.00 0.01 0.01 39 1006.8
20260503211555 67 117 5.0 16.0 0.00 0.01 0.01 38 1007.1
20260503211059 67 182 4.0 16.0 0.00 0.01 0.01 41 1007.1
20260503210555 67 232 4.0 16.0 0.00 0.01 0.01 40 1007.1
20260503210100 67 222 3.0 17.0 0.00 0.01 0.01 38 1007.1
20260503205559 67 201 4.0 17.0 0.00 0.01 0.01 40 1007.2
20260503205055 67 153 4.0 17.0 0.00 0.01 0.01 41 1007.2
20260503204609 67 202 5.0 15.0 0.00 0.01 0.01 39 1007.5
20260503204058 66 131 5.0 13.0 0.00 0.01 0.01 39 1007.5
20260503203557 66 164 5.0 18.0 0.00 0.01 0.01 39 1007.7
20260503203107 65 194 4.0 18.0 0.00 0.01 0.01 43 1007.7
20260503202559 65 196 4.0 15.0 0.00 0.01 0.01 44 1007.9
20260503202058 65 188 4.0 16.0 0.00 0.01 0.01 43 1008.1
20260503201558 65 148 3.0 16.0 0.00 0.01 0.01 43 1008.1
20260503201057 65 205 5.0 16.0 0.00 0.01 0.01 47 1008.2
20260503200555 65 132 3.0 15.0 0.00 0.01 0.01 46 1008.2
20260503200057 65 143 3.0 12.0 0.00 0.01 0.01 47 1008.3
20260503195558 65 204 2.0 14.0 0.00 0.01 0.01 43 1008.4
20260503195057 66 144 5.0 14.0 0.00 0.01 0.01 40 1008.3
20260503194614 66 173 4.0 14.0 0.00 0.01 0.01 40 1008.5
20260503194057 66 169 5.0 17.0 0.00 0.01 0.01 43 1008.5
20260503193556 66 175 4.0 17.0 0.00 0.01 0.01 44 1008.7
20260503193100 65 179 3.0 11.0 0.00 0.01 0.01 49 1008.7
20260503192558 65 206 2.0 15.0 0.00 0.01 0.01 49 1008.7
20260503192056 64 150 5.0 15.0 0.00 0.01 0.01 50 1008.8
20260503191603 64 144 5.0 14.0 0.00 0.01 0.01 47 1008.8
20260503191057 64 192 4.0 13.0 0.00 0.01 0.01 51 1008.9
20260503190558 63 211 2.0 11.0 0.00 0.01 0.01 55 1009.0
20260503185558 62 173 4.0 12.0 0.00 0.01 0.01 55 1009.0
20260503185058 61 150 6.0 12.0 0.00 0.01 0.01 54 1009.2
20260503184600 61 176 4.0 12.0 0.00 0.01 0.01 56 1009.2
20260503184057 60 154 6.0 12.0 0.00 0.01 0.01 54 1009.3
20260503183556 60 128 6.0 12.0 0.00 0.01 0.01 57 1009.4
20260503183106 59 162 4.0 10.0 0.00 0.01 0.01 60 1009.5
20260503182558 58 176 4.0 10.0 0.00 0.01 0.01 61 1009.6
20260503182056 57 111 2.0 9.0 0.00 0.01 0.01 61 1009.6
20260503181558 57 117 4.0 10.0 0.00 0.01 0.01 60 1009.8
20260503181058 56 148 3.0 13.0 0.00 0.01 0.01 61 1010.1
20260503180558 56 49 2.0 13.0 0.00 0.01 0.01 62 1010.1
20260503180107 55 67 4.0 11.0 0.01 0.01 0.01 64 1010.3
20260503175557 55 0 2.0 9.0 0.01 0.01 0.01 67 1010.3
20260503175057 54 83 2.0 9.0 0.01 0.01 0.01 68 1010.4
20260503174557 54 120 2.0 6.0 0.01 0.01 0.01 69 1010.3
20260503174059 53 119 2.0 7.0 0.01 0.01 0.01 71 1010.5
20260503173559 53 78 3.0 7.0 0.01 0.01 0.01 72 1011.0
20260503173154 53 113 1.0 7.0 0.01 0.01 0.01 73 1011.1
20260503172559 53 192 3.0 7.0 0.01 0.01 0.01 74 1011.4
20260503172058 53 134 2.0 7.0 0.01 0.01 0.01 75 1011.5
20260503171059 52 141 2.0 12.0 0.01 0.01 0.01 76 1011.9
20260503170558 52 170 3.0 12.0 0.01 0.01 0.01 74 1012.2
20260503150557 53 197 7.0 20.0 0.00 0.00 0.00 61 1013.7
20260503131058 46 232 2.0 8.0 0.00 0.00 0.00 73 1014.3
20260503130559 46 172 0.0 8.0 0.00 0.00 0.00 76 1014.2
20260503130110 46 0 2.0 8.0 0.00 0.00 0.00 76 1014.2
20260503120109 43 182 0.0 7.0 0.00 0.00 0.00 79 1014.1
20260503110558 41 175 0.0 5.0 0.00 0.00 0.00 84 1013.8
20260503100113 39 221 0.0 3.0 0.00 0.00 0.00 82 1014.0
20260503081601 40 0 0.0 3.0 0.00 0.00 0.00 80 1014.6
20260503081056 40 0 0.0 3.0 0.00 0.00 0.00 80 1014.5
20260503080600 40 171 0.0 3.0 0.00 0.00 0.00 80 1014.6
20260503072559 39 0 0.0 4.0 0.00 0.00 0.00 78 1014.7
20260503072055 39 0 0.0 1.0 0.00 0.00 0.00 78 1014.6
20260503071601 39 0 0.0 2.0 0.00 0.00 0.00 78 1014.8
20260503071055 39 0 0.0 2.0 0.00 0.00 0.00 77 1014.8
20260503070555 39 0 0.0 1.0 0.00 0.00 0.00 77 1015.0